Regional Weather Roundup
Issued by NWS

Current Version | Previous Version | Text Only | Print | Product List | Glossary On
Versions: 1 2 3 4 5 6 7 8 9 10 11 12 13 14 15 16 17 18 19 20 21 22 23 24 25 26 27 28 29 30 31 32 33 34 35 36 37 38 39 40 41 42 43 44 45 46 47 48 49 50
000
ASUS45 KABQ 172310
RWRNM
WEATHER ROUNDUP FOR NEW MEXICO
NATIONAL WEATHER SERVICE ALBUQUERQUE NM
500 PM MDT WED SEP 17 2014

NOTE: "FAIR" MEANS FEW OR NO CLOUDS BELOW 12,000 FEET AGL WITH NO
       SIGNIFICANT WEATHER OR OBSTRUCTIONS TO VISION.

      THIS PRODUCT IS RELEASED AS TWO VERSIONS.  ONE VERSION NEAR
      THE TOP OF THE HOUR CONTAINING PRELIMINARY DATA FROM ALBUQUERQUE
      AND OTHER STATIONS.  A FINAL VERSION WITH ADDITIONAL DATA IS
      ISSUED ABOUT 10 MINUTES AFTER THE HOUR.

NMZ501-503-504-510>518-180000-
NORTHWEST PLATEAU/NORTHCENTRAL MOUNTAINS

CITY           SKY/WX    TMP DP  RH WIND       PRES   REMARKS
FARMINGTON     SUNNY     80  48  32 S10       30.06S
LOS ALAMOS     CLOUDY    65  43  44 S9G17     30.21S
SANTA FE       CLOUDY    66  52  60 SW5       30.14F
TAOS           CLOUDY    66  48  52 SW9       30.19F
ANGEL FIRE     FAIR      67  32  26 E3        30.26F

$$
NMZ402-403-502-505>509-180000-
WESTCENTRAL MOUNTAINS/SOUTHWEST MOUNTAINS

CITY           SKY/WX    TMP DP  RH WIND       PRES   REMARKS
GALLUP         CLOUDY    71  44  37 E16       30.13F
GRANTS         CLOUDY    66  48  52 SE12G21   30.18F
SILVER CITY    CLOUDY    70  63  78 SE6       30.08F

$$
NMZ407-409-411-412-180000-
SOUTHERN DESERTS

CITY           SKY/WX    TMP DP  RH WIND       PRES   REMARKS
LORDSBURG      RAIN      63  61  94 SE6       30.01F
DEMING         CLOUDY    76  64  66 E7        29.98F
LAS CRUCES     CLOUDY    77  62  59 SE3       30.00F
HOLLOMAN AFB   PTSUNNY   77  65  66 NW2       29.98F
ALAMOGORDO     PTSUNNY   81  63  54 N3        30.00F
T OR C         PTSUNNY   75  61  61 SE6       30.03F

$$
NMZ519>523-180000-
CENTRAL VALLEYS/CENTRAL HIGHLANDS

CITY           SKY/WX    TMP DP  RH WIND       PRES   REMARKS
ALBUQUERQUE    CLOUDY    69  56  62 NW5       30.11F
DOUBLE EAGLE   PTSUNNY   66  54  63 CALM      30.14F
MORIARTY ARPT  MOCLDY    68  51  56 N5        30.16F
CLINES CORNERS CLOUDY    67  50  54 N9        30.18F
BELEN          FAIR      70  59  68 NE6       30.10F
SOCORRO        FAIR      72  60  66 N8        30.07F

$$
NMZ524>526-539-540-180000-
SOUTHCENTRAL MOUNTAINS

CITY           SKY/WX    TMP DP  RH WIND       PRES   REMARKS
RUIDOSO        PTSUNNY   63  59  88 SE7       30.20S

$$
NMZ527>531-180000-
NORTHEAST HIGHLANDS/NORTHEAST PLAINS

CITY           SKY/WX    TMP DP  RH WIND       PRES   REMARKS
LAS VEGAS      CLOUDY    69  46  43 S7        30.16F
RATON          PTSUNNY   75  48  38 S8        30.10F
CLAYTON        CLOUDY    75  55  49 SW10      30.03F

$$
NMZ532>537-180000-
EASTCENTRAL PLAINS

CITY           SKY/WX    TMP DP  RH WIND       PRES   REMARKS
TUCUMCARI      CLOUDY    75  60  59 SW12      30.00S
CANNON AFB     PTSUNNY   69  65  86 SW3       30.04F
CLOVIS AIRPORT   N/A     70  63  78 S5        30.05F

$$
NMZ028-029-538-180000-
SOUTHEAST PLAINS

CITY           SKY/WX    TMP DP  RH WIND       PRES   REMARKS
ROSWELL        PTSUNNY   75  66  73 N9        30.00F
CARLSBAD       CLOUDY    80  69  69 NW5       29.95S
HOBBS          MOSUNNY   81  63  54 S6        29.98F


$$


USA.gov is the U.S. government's official web portal to all federal, state and local government web resources and services.